Theta_e
310 310 310 309 310 310 310 310 310 310 310 310 311 311 311 311 311 312 312 312 313 313 313 313 313 314 314 314 314 314 314 314 314 314 314 315 315 316 314 313 314 315 315 315 315 316 317 316 316 316 316 316 316 316 317 318 318 318 323 324 321 324 323 321 323 316 316 322 317 314 314 314 316 315 314 315 315 315 316 316 317 316 317 317 317 317 316 317
310 310 310 310 310 310 310 310 310 310 311 311 311 311 311 311 312 312 312 313 313 313 313 313 313 314 313 314 314 314 314 314 314 314 314 315 315 316 314 313 314 314 315 314 315 315 316 316 316 316 316 316 316 317 317 318 317 320 323 321 322 327 320 315 317 313 313 317 315 314 314 313 315 314 314 315 315 314 315 316 316 316 317 317 317 317 317 317
310 310 310 310 310 310 310 310 310 310 310 311 311 311 311 312 312 312 312 312 313 313 313 313 314 314 314 314 314 314 313 313 314 314 315 314 314 315 314 314 314 314 314 315 314 314 315 316 316 315 316 316 316 317 317 318 318 318 318 322 327 323 314 312 314 314 315 316 313 313 314 312 313 314 313 314 314 314 314 316 315 315 317 317 317 317 317 316
309 310 310 310 310 310 310 310 310 311 311 311 311 311 311 311 312 312 312 312 313 313 313 313 313 313 313 313 314 314 313 314 314 314 315 315 314 315 315 315 314 314 314 315 315 315 315 315 315 315 315 315 315 316 317 318 319 317 317 325 324 314 314 316 314 316 315 314 313 313 313 312 313 314 313 313 314 315 315 316 317 316 317 317 317 316 316 316
310 310 310 310 310 310 310 310 310 311 311 311 311 311 311 311 311 311 312 312 312 312 312 313 313 313 313 313 314 313 313 315 316 315 316 315 314 314 316 315 315 314 314 315 315 315 315 314 315 314 315 315 314 316 317 317 318 317 317 320 317 312 316 317 315 317 316 314 313 311 313 314 314 313 313 313 314 316 316 316 317 316 317 316 316 316 316 315
310 310 310 311 311 311 311 311 311 312 312 312 312 312 312 312 312 312 312 312 312 312 312 312 313 313 313 313 314 313 313 314 315 315 315 315 314 314 316 316 314 314 314 314 314 315 315 314 315 315 314 314 314 316 316 316 316 318 318 316 316 315 316 317 316 316 316 315 313 312 314 314 312 313 313 312 314 316 316 316 316 316 316 315 316 315 315 315
312 312 312 312 312 312 312 312 312 312 313 313 313 313 313 313 313 313 313 314 313 313 314 314 314 314 314 314 314 314 313 314 315 315 315 314 314 315 315 315 314 314 314 315 314 315 315 314 314 315 314 314 314 315 315 315 315 318 319 315 315 316 315 316 316 315 316 315 314 315 314 313 313 314 313 311 313 315 315 315 315 315 315 314 315 315 315 315
312 312 312 312 312 312 312 312 312 312 312 312 313 313 313 313 313 314 314 314 314 314 314 314 314 314 314 314 314 313 312 314 315 315 315 314 314 315 315 315 314 315 315 315 315 315 314 314 314 314 314 314 313 313 313 314 314 317 319 315 314 315 315 316 316 314 315 314 315 314 312 313 314 313 311 312 314 315 315 315 315 315 315 315 315 315 315 315
311 312 312 312 313 313 313 313 313 313 313 313 313 313 313 313 313 314 313 314 314 314 314 314 314 314 314 313 313 312 313 315 315 315 315 315 315 315 315 315 315 315 314 315 315 315 314 314 314 314 314 313 313 312 312 313 315 315 316 315 314 314 314 314 314 314 314 314 314 312 311 313 313 312 311 313 314 315 315 314 315 315 314 315 315 314 315 314
313 313 314 315 315 316 316 316 317 317 317 317 317 317 317 317 317 317 316 316 316 316 315 314 314 313 313 313 312 312 314 315 315 315 315 315 315 314 315 315 314 315 314 314 315 314 315 314 314 314 313 313 312 312 311 313 314 313 313 312 313 313 312 312 312 312 312 312 311 311 312 312 312 311 312 314 314 314 314 314 314 314 314 314 314 314 314 314
315 315 316 316 317 317 318 318 318 318 318 318 318 318 318 318 318 318 318 318 318 318 318 317 317 315 314 313 312 312 314 315 314 314 314 314 314 314 314 314 314 314 314 314 314 314 314 314 313 313 313 313 312 311 311 312 313 311 311 312 312 311 311 311 310 310 310 311 311 310 311 310 310 310 312 314 313 313 313 314 314 314 314 314 314 314 314 314
315 316 316 316 316 316 316 316 316 315 315 314 314 314 314 315 315 315 315 315 315 315 316 316 317 318 317 315 314 313 314 314 313 313 313 313 314 313 313 314 314 313 314 314 314 314 313 313 313 313 313 312 312 311 311 311 311 311 311 313 313 311 312 311 311 310 309 310 310 309 310 311 312 312 314 313 313 313 312 313 314 314 314 314 314 314 314 314
315 315 315 314 314 314 313 313 313 313 313 314 314 315 315 315 315 316 316 316 315 315 314 313 314 316 316 317 317 316 316 314 314 314 314 314 313 313 313 313 313 313 313 314 314 314 313 312 311 312 312 311 312 311 311 310 310 312 311 311 313 313 313 311 310 309 308 310 310 310 312 316 316 313 313 314 312 312 312 312 313 314 314 314 314 314 314 314
314 313 313 313 313 313 314 314 315 315 316 317 317 317 318 318 318 318 318 318 318 317 316 313 312 313 314 316 317 316 316 316 316 315 315 314 313 313 312 312 312 313 313 313 314 313 313 311 310 311 311 312 312 311 312 311 313 314 310 311 313 312 316 314 308 307 309 310 309 310 312 314 315 312 313 314 311 310 311 312 313 314 314 314 314 314 314 314
314 315 315 315 316 316 317 318 318 319 320 320 320 320 321 321 321 321 320 320 319 319 317 314 312 312 313 314 315 316 316 316 316 316 316 315 314 313 312 312 312 312 313 313 314 313 312 311 310 311 311 312 311 312 315 317 322 320 311 314 315 312 317 316 309 307 311 311 307 310 313 312 312 312 313 313 311 310 310 311 312 312 313 313 313 313 313 313
318 318 319 319 320 320 321 321 322 322 323 323 322 322 322 322 322 322 321 320 318 318 317 315 313 312 312 314 315 316 315 316 316 316 316 315 314 313 312 312 312 313 313 313 313 312 312 312 311 311 311 312 312 314 316 317 322 321 312 314 317 313 314 314 311 308 308 310 308 309 312 312 312 312 313 313 312 310 309 310 310 311 312 312 312 312 312 313
321 322 322 322 323 323 323 323 324 324 324 323 323 323 323 323 322 321 320 319 319 317 315 315 313 312 313 315 316 316 316 316 315 315 315 314 314 313 313 313 312 313 313 313 313 311 312 312 311 313 313 311 313 316 317 315 317 318 313 314 316 314 313 312 314 310 306 309 311 310 310 310 311 311 311 312 312 310 308 309 310 310 310 311 312 312 312 312
323 323 323 324 324 324 324 324 324 324 324 323 323 323 323 321 320 320 319 318 317 315 314 314 313 314 317 315 315 315 315 315 315 315 314 314 314 313 313 314 313 313 313 312 312 312 313 311 311 316 315 312 313 315 316 316 316 316 316 315 314 313 312 312 314 311 310 311 311 311 309 309 309 309 309 310 311 310 309 310 310 310 310 310 311 311 312 313
323 324 324 324 324 324 324 324 324 323 323 323 323 323 322 320 319 319 318 317 315 315 316 315 313 317 319 316 315 316 315 315 315 315 314 314 314 313 314 313 313 313 312 313 313 311 311 311 311 316 316 314 313 313 314 315 314 313 313 313 313 312 312 311 311 309 310 310 309 310 310 309 310 309 309 309 310 309 309 310 310 310 310 310 310 311 312 313
323 324 324 324 324 324 324 323 323 324 323 322 322 322 321 318 319 319 316 317 318 317 318 317 316 316 317 318 318 317 316 316 315 315 314 314 314 313 313 312 313 312 312 316 316 310 310 314 314 316 316 314 313 312 312 312 312 311 311 313 312 311 311 310 311 309 307 308 310 310 310 310 310 310 309 309 309 308 308 309 310 310 311 311 311 311 312 313
323 324 324 324 324 322 321 320 322 323 322 321 321 322 320 316 318 319 316 317 320 319 319 320 319 317 318 319 317 316 315 315 315 314 314 314 313 313 313 312 313 313 311 312 313 309 309 314 314 315 314 313 313 313 311 311 312 311 312 312 311 311 311 310 311 310 308 308 310 311 310 309 309 310 309 309 309 309 309 309 309 311 311 312 312 312 313 314
322 324 325 324 322 319 319 319 320 320 320 321 320 321 320 318 317 316 313 314 318 319 320 320 319 318 319 319 316 315 314 313 314 314 314 314 313 314 313 313 315 316 311 309 312 311 312 313 314 313 310 311 313 312 312 312 312 313 312 312 312 311 311 311 311 311 309 309 312 312 309 309 309 310 309 310 310 309 310 310 310 311 311 312 313 313 313 313
320 321 322 322 320 318 319 319 319 319 320 320 320 321 321 319 317 314 313 312 315 319 319 318 317 317 318 318 316 315 312 312 313 313 314 313 313 313 312 312 315 316 313 313 315 315 316 317 313 309 308 310 312 311 311 312 311 313 313 312 312 311 312 312 312 314 312 309 311 310 309 310 310 310 311 310 309 309 311 311 310 311 312 313 314 313 313 314
318 318 319 319 319 319 319 319 319 319 320 320 321 322 321 318 317 314 313 312 313 317 316 316 315 315 316 315 314 314 312 312 312 312 314 313 313 313 312 312 314 315 314 314 315 314 316 316 309 308 310 311 311 311 311 312 311 313 313 312 312 312 312 311 312 313 311 312 313 310 311 315 315 316 317 313 309 309 310 310 310 311 313 313 312 313 314 314
318 318 319 319 320 320 319 319 320 319 320 321 321 321 320 317 316 314 312 314 317 317 315 313 313 313 314 313 313 313 312 312 312 312 312 313 313 313 312 311 313 316 315 313 314 313 314 311 307 311 313 310 311 312 313 314 312 312 315 314 312 312 312 312 313 310 311 316 314 311 313 316 318 319 322 321 316 314 311 310 310 311 312 311 311 314 315 313
318 319 320 320 320 320 319 320 320 319 321 322 321 321 320 317 316 315 312 316 323 321 314 313 313 313 312 311 311 311 313 314 311 311 311 312 313 311 312 311 310 315 315 312 311 311 313 310 308 313 315 312 312 314 315 314 311 312 317 317 314 312 313 313 312 311 315 316 312 313 316 315 315 316 319 318 317 318 315 313 311 309 309 311 313 314 314 312
320 320 320 321 321 321 321 320 320 320 321 322 322 321 320 317 315 313 314 320 325 320 314 313 312 312 311 310 310 311 316 315 310 311 311 312 312 310 313 313 310 311 309 309 314 314 313 311 309 312 315 315 314 314 315 312 312 315 316 318 318 315 314 313 311 312 315 314 311 314 315 314 315 315 316 315 315 318 316 314 312 309 310 312 312 314 313 311
321 321 320 321 321 322 322 321 320 321 321 322 321 321 320 317 315 314 319 326 325 318 314 312 311 311 311 310 310 310 311 310 310 312 310 311 312 310 312 312 313 314 308 309 317 313 311 314 313 314 315 315 314 315 315 312 313 317 313 313 315 315 314 313 312 313 313 313 314 313 312 315 317 315 315 314 316 320 318 317 315 311 313 315 314 314 312 312
321 320 320 320 320 322 322 322 321 321 322 321 321 321 320 317 314 314 321 325 321 316 314 312 312 311 310 310 310 309 309 309 310 311 310 311 312 310 311 310 310 314 309 309 316 312 310 312 311 315 317 315 315 316 315 315 315 312 308 311 315 314 314 313 314 317 317 316 316 315 314 316 318 319 318 315 316 321 322 322 318 311 313 316 315 313 312 312
320 319 319 319 319 321 322 322 322 321 322 321 321 321 319 317 316 318 323 322 316 315 313 311 312 310 310 312 312 309 308 309 309 310 310 310 311 309 310 309 307 313 312 309 313 312 308 307 306 312 313 312 316 312 308 311 310 307 309 315 317 316 314 314 315 316 318 318 317 317 316 315 318 321 320 319 319 322 321 321 321 315 312 314 313 311 312 312
319 318 318 318 318 319 320 321 321 320 320 320 321 320 317 318 321 322 323 318 313 316 314 311 313 313 313 314 314 312 310 309 308 310 311 310 311 309 309 310 310 315 318 313 313 312 307 308 309 311 309 308 313 311 305 305 304 308 315 317 316 316 316 317 318 315 317 321 319 316 314 313 318 318 318 320 319 319 316 315 320 318 313 313 312 310 311 311
317 317 316 317 317 317 318 319 320 319 319 320 319 318 317 320 320 320 321 318 318 320 316 312 313 315 316 313 316 316 312 311 308 309 314 313 314 313 313 318 316 318 323 320 318 317 314 313 311 310 308 307 311 313 310 308 307 310 315 315 313 316 318 318 319 317 318 320 316 313 312 313 316 315 316 317 317 317 313 310 314 313 311 313 313 311 311 310
316 316 315 316 316 316 317 318 318 318 319 319 318 317 319 321 320 319 322 322 318 317 315 314 314 313 314 316 322 318 312 316 313 309 313 312 312 316 317 318 317 317 320 319 319 320 321 317 310 309 310 309 311 314 314 314 312 310 313 315 316 317 318 319 320 318 318 319 315 311 313 315 315 316 317 316 314 314 311 308 310 310 310 311 310 311 311 309
315 315 315 315 315 316 316 316 317 317 318 318 317 317 319 320 318 318 323 324 320 318 317 316 315 315 314 317 323 320 315 320 317 310 313 312 313 320 319 314 312 314 315 315 316 319 320 320 316 315 314 311 310 312 316 320 314 309 313 316 317 319 321 321 322 322 321 321 314 310 314 319 318 319 318 313 310 310 309 308 309 310 309 309 309 311 310 309
313 313 313 313 313 314 315 315 316 317 317 317 317 319 319 318 318 318 320 322 322 322 318 316 316 318 318 318 320 318 315 319 317 311 313 315 317 323 324 319 314 312 314 315 317 317 316 321 320 314 310 310 310 310 315 322 316 310 313 316 315 319 321 318 320 322 320 320 316 312 316 319 317 316 316 312 309 309 308 307 309 309 309 309 311 311 309 308
310 310 310 310 310 311 312 314 315 316 317 317 318 319 318 317 319 319 318 318 318 320 319 318 317 319 321 321 319 315 312 315 315 313 314 316 317 319 321 322 317 311 313 317 320 318 316 320 318 310 307 309 309 309 311 316 316 313 312 314 315 316 317 316 318 319 317 318 318 317 318 317 316 317 316 314 313 313 312 309 306 307 309 310 309 309 308 307
307 307 307 307 307 308 309 311 313 315 316 316 317 319 318 317 318 320 318 314 314 317 317 317 318 320 322 321 319 315 312 314 314 314 318 317 316 318 318 318 313 310 313 315 317 319 317 317 317 313 313 310 304 306 309 308 311 315 316 315 313 314 314 315 317 319 318 317 318 318 319 318 318 319 317 316 318 318 317 313 306 305 307 307 305 306 306 304
305 305 305 306 305 306 307 308 312 315 316 317 318 318 318 316 314 315 316 313 313 315 316 317 318 319 321 320 319 317 315 316 316 315 319 318 316 317 317 315 312 309 309 309 313 318 316 315 317 316 314 310 305 308 311 308 306 311 314 313 313 315 316 316 318 318 317 318 319 319 319 318 318 319 317 318 319 317 316 314 309 306 304 302 302 302 301 300
303 304 304 306 306 306 305 307 311 315 316 317 318 316 316 316 314 313 315 314 314 315 317 318 318 317 319 318 318 319 317 317 317 316 317 318 316 315 314 315 313 308 306 308 313 318 315 315 318 317 314 311 308 311 316 314 309 307 308 311 313 314 315 316 318 318 318 318 319 319 320 319 318 318 317 317 314 311 311 311 308 303 301 299 298 297 296 296
302 304 305 307 309 309 306 307 311 315 317 316 316 315 315 315 315 314 315 315 314 316 317 318 318 317 318 317 317 318 318 318 317 316 317 318 317 317 315 314 314 310 306 307 311 314 314 315 316 316 314 312 312 314 317 317 314 311 311 313 312 312 314 315 314 316 317 316 317 319 318 320 321 320 316 313 309 307 308 308 303 300 298 297 295 295 294 294
301 304 306 305 308 310 307 308 312 314 316 316 314 314 314 314 314 313 314 314 314 315 315 316 318 317 316 317 317 316 318 319 318 317 317 317 317 317 315 311 313 314 311 310 312 312 314 316 315 314 314 313 314 314 312 313 316 315 314 313 313 312 314 315 314 315 316 314 316 317 316 319 322 319 315 310 305 303 304 303 300 297 296 295 294 294 294 295
302 305 307 307 308 309 308 309 312 313 314 315 314 313 313 313 313 313 313 313 313 313 313 315 317 316 315 316 316 315 317 318 317 317 317 317 317 316 312 309 311 312 312 315 316 313 313 315 314 313 314 314 315 313 310 312 315 314 313 314 314 312 312 314 315 316 316 315 315 316 316 318 319 320 319 311 301 298 299 298 297 296 294 294 294 294 294 295
302 304 307 309 309 309 310 310 310 312 313 314 313 313 313 313 313 313 312 312 313 313 314 315 315 314 315 315 315 315 316 316 316 316 316 317 316 311 307 307 310 310 312 316 315 310 310 312 313 313 314 315 317 315 311 310 313 313 313 314 314 313 313 314 313 314 315 315 315 316 317 317 320 325 319 306 298 296 296 295 295 294 293 293 294 294 294 294
299 300 303 309 310 309 310 311 311 312 312 312 313 313 313 313 313 313 312 312 313 314 314 314 314 313 313 313 314 314 314 314 314 314 314 315 313 306 303 306 309 309 310 312 311 308 309 311 312 313 314 315 316 316 313 312 313 313 313 315 314 313 313 313 313 313 314 315 316 317 317 317 321 323 311 300 296 296 295 294 293 293 293 293 293 293 294 294
297 297 299 304 308 308 308 309 310 311 312 312 312 312 313 313 312 313 312 312 312 312 313 313 311 309 310 310 311 312 311 312 312 312 312 314 311 305 303 305 306 307 306 306 306 308 309 311 313 313 314 314 313 313 313 313 313 311 311 312 312 311 312 312 312 313 314 315 316 315 315 315 317 317 309 301 298 296 294 294 293 293 293 293 293 293 293 293
296 299 300 300 302 303 304 305 306 309 311 311 312 312 311 312 311 311 311 312 311 311 312 311 308 307 309 310 310 311 311 310 310 310 310 312 313 307 302 303 304 304 305 303 304 308 310 311 312 312 312 312 312 312 311 310 310 310 310 310 309 310 310 310 310 311 312 312 311 312 313 312 313 313 309 302 297 295 294 293 293 293 293 293 293 293 293 292
296 300 301 301 302 302 302 304 304 306 308 308 310 310 310 310 310 310 311 311 310 309 310 310 309 309 311 311 310 311 311 311 310 310 309 309 310 307 302 302 303 302 303 301 302 307 309 309 310 311 310 311 310 310 309 307 307 308 307 307 307 307 307 308 308 308 309 310 310 311 311 309 310 309 305 299 295 294 294 293 293 293 292 292 293 293 292 292
297 298 297 299 302 302 302 303 302 302 304 304 305 306 308 309 310 310 310 309 307 308 310 309 308 308 308 308 309 310 310 310 309 309 309 307 306 306 305 303 301 299 300 299 300 305 307 305 306 308 307 308 308 307 306 305 304 305 305 305 305 305 305 306 306 306 308 308 308 308 307 307 307 304 299 295 294 293 293 293 293 293 293 293 293 293 292 292
296 296 295 297 298 298 299 300 299 299 301 302 303 305 306 307 308 308 308 307 307 307 308 309 307 305 305 305 307 308 308 308 308 307 306 305 304 305 306 305 302 298 297 298 299 302 303 304 305 305 304 304 305 304 303 303 302 302 303 303 303 304 305 305 305 305 305 305 305 305 305 306 304 298 295 294 293 293 293 293 292 293 293 293 293 293 292 292
294 295 295 296 295 295 296 297 297 298 299 300 302 303 304 305 305 305 305 305 306 306 306 307 305 303 302 302 304 306 304 303 304 304 303 303 303 303 303 304 302 299 297 298 299 301 302 303 304 303 302 301 301 302 302 302 302 302 301 302 303 303 303 303 303 303 302 303 303 303 305 305 299 293 293 294 293 292 292 292 292 292 293 293 293 293 292 291
294 295 295 295 294 295 296 295 296 297 298 299 301 301 302 303 301 301 302 301 300 303 303 302 301 300 300 300 301 301 300 298 299 300 298 299 300 300 299 299 299 297 297 298 300 301 301 301 301 300 299 299 300 301 300 300 300 300 300 300 300 301 301 301 301 301 301 302 302 303 304 302 296 292 293 293 292 292 292 292 291 291 291 292 293 293 292 291
293 293 294 294 293 294 295 295 295 296 297 297 299 300 300 299 297 298 301 299 296 297 297 296 297 298 298 298 298 298 297 296 296 296 295 295 296 296 296 296 296 296 297 297 298 299 299 298 298 298 298 298 298 298 298 298 297 296 297 299 299 299 299 299 300 301 302 302 303 303 302 298 294 294 294 293 293 292 291 291 291 291 291 291 292 292 291 290
Wind_Speed
7 6 6 6 6 6 6 6 5 5 5 5 5 4 4 4 4 4 4 5 5 6 7 8 9 10 11 12 13 14 15 16 16 19 16 6 3 6 5 5 6 9 9 8 8 7 6 6 7 6 6 6 4 4 5 5 7 6 3 2 2 3 4 5 8 8 4 3 4 5 6 4 6 10 9 7 9 13 17 23 25 23 25 27 27 27 26 26
7 7 7 7 6 6 6 6 6 6 6 6 6 6 6 6 6 6 7 7 7 8 9 10 10 11 12 13 14 15 17 17 20 19 8 2 6 7 5 5 4 8 10 9 8 7 7 6 7 8 8 7 4 5 6 6 8 5 2 2 4 5 6 7 10 9 6 6 6 8 11 8 10 11 7 5 7 9 12 22 26 25 28 28 26 25 25 25
7 7 7 7 7 7 8 8 8 8 8 8 8 8 8 8 8 8 9 9 10 10 11 12 12 13 14 15 16 17 17 19 21 13 3 4 10 8 6 5 3 4 8 10 9 8 8 7 7 8 9 7 4 5 5 5 6 5 3 2 6 7 6 8 12 13 14 13 8 10 14 11 14 13 7 5 7 7 10 20 23 23 28 26 22 20 21 23
8 8 8 8 9 9 9 9 9 9 9 9 10 10 10 10 10 10 11 11 12 12 12 13 13 14 15 16 17 17 18 19 14 4 7 5 14 10 6 4 4 3 4 8 10 10 9 8 8 9 9 6 4 4 5 7 6 4 6 4 6 4 4 10 14 17 18 15 12 13 12 12 16 14 10 6 4 6 16 26 26 27 29 27 24 21 21 24
9 9 9 9 10 10 10 10 10 11 11 11 11 12 12 12 12 13 13 13 13 14 14 14 15 16 16 17 17 17 16 11 3 5 4 11 16 12 6 5 5 3 3 6 10 11 10 9 9 9 8 4 3 3 4 10 8 3 7 11 10 5 4 12 13 14 16 14 14 11 9 14 13 13 15 10 6 12 24 31 31 33 33 29 29 26 26 28
10 10 10 11 11 11 11 12 12 12 12 13 13 13 14 14 14 14 14 15 15 15 16 16 16 16 17 18 18 18 11 4 5 7 11 16 15 11 7 7 6 6 6 6 9 11 11 10 9 9 6 2 4 5 5 10 11 5 7 12 16 13 10 15 11 10 13 12 12 10 12 19 12 12 17 15 18 28 36 37 36 38 36 32 32 32 32 32
11 12 12 12 12 12 13 13 14 14 14 15 15 16 16 16 17 17 17 17 17 17 17 17 18 18 18 19 19 18 11 11 16 16 17 15 11 9 7 9 9 9 8 8 9 10 11 11 12 9 4 1 4 7 6 8 11 6 5 7 14 17 18 23 18 14 15 15 19 17 16 22 15 10 14 16 25 36 42 41 41 41 38 35 34 34 34 32
12 13 13 13 13 14 14 14 15 15 16 16 17 18 18 19 19 19 19 19 19 19 19 19 19 19 19 19 20 17 15 18 19 13 10 7 6 7 9 12 12 11 10 10 10 9 11 12 14 10 4 4 5 6 5 6 7 7 9 8 9 12 18 22 21 19 18 21 25 19 17 27 26 14 16 29 36 40 41 40 40 38 36 33 31 30 29 29
12 13 13 14 14 14 15 15 16 16 17 18 19 19 20 21 21 21 21 21 21 20 21 20 20 20 19 19 19 16 18 20 14 9 7 5 8 11 14 16 14 14 13 12 10 11 11 11 13 12 8 6 6 6 6 5 5 9 13 11 9 13 17 19 20 21 19 24 22 11 14 28 31 14 18 40 39 32 31 31 32 31 31 30 28 28 27 27
13 13 13 14 14 15 16 16 17 17 18 19 19 20 21 22 22 22 22 22 22 21 22 21 21 20 19 21 17 12 17 18 12 12 12 12 15 17 18 17 17 18 15 13 12 12 12 11 10 9 9 6 5 7 7 6 5 6 7 9 13 17 21 19 19 21 18 23 22 12 12 25 26 7 13 38 30 19 23 28 31 29 31 32 29 29 27 28
13 13 14 14 15 16 16 17 17 17 18 18 19 20 20 21 21 22 22 21 21 21 21 21 21 20 19 21 17 15 21 20 17 18 17 18 21 22 21 19 19 18 15 14 12 12 12 12 10 6 6 5 5 6 8 10 8 6 6 7 14 16 21 19 16 22 16 15 19 15 10 18 16 3 17 41 31 21 26 29 32 31 33 33 30 30 28 28
12 13 13 14 15 16 16 17 17 16 16 16 17 18 18 19 19 19 19 19 19 19 19 19 19 20 19 21 26 26 26 24 22 21 20 21 23 24 24 21 20 17 15 13 11 11 11 12 13 9 6 4 2 2 6 8 5 7 5 4 11 9 15 17 13 17 12 6 9 8 4 8 7 11 29 41 29 23 24 26 31 31 31 31 28 28 27 28
12 12 12 13 14 14 14 15 14 14 14 14 15 16 16 17 16 17 17 16 17 16 17 16 17 18 16 20 28 28 24 23 22 21 21 22 22 24 25 23 20 17 14 13 12 12 11 11 13 12 10 6 3 4 4 3 1 6 2 1 6 6 9 10 4 5 5 5 6 7 3 6 7 19 33 32 22 19 20 24 29 28 30 30 28 29 30 31
10 10 10 11 11 12 12 12 12 12 12 13 14 15 16 16 16 16 16 16 15 15 15 14 15 15 14 18 26 26 24 24 23 21 21 22 23 25 25 23 20 17 14 12 13 13 12 10 10 11 12 11 9 7 5 5 2 4 1 1 2 2 6 8 1 2 2 5 10 8 5 7 7 19 30 28 20 15 16 22 24 26 32 34 34 34 36 38
8 8 8 9 9 10 10 11 12 12 13 14 14 15 17 17 16 16 17 16 15 14 14 14 15 13 11 17 23 23 23 22 19 18 19 19 20 22 23 21 17 14 12 11 12 13 11 9 10 9 8 12 12 5 3 4 2 2 2 3 1 3 5 10 8 6 6 5 9 7 6 6 7 17 24 23 19 14 14 21 23 28 35 39 41 40 41 44
7 7 7 8 9 9 10 11 12 13 14 14 15 16 17 17 17 17 17 16 15 13 12 12 13 10 7 12 18 20 22 21 18 17 17 17 18 19 19 17 13 11 10 10 11 11 9 9 10 8 5 7 6 1 3 4 4 2 2 5 4 5 3 6 11 9 8 3 5 7 7 6 5 12 18 18 22 22 18 25 29 33 38 42 44 42 44 47
6 6 7 7 8 9 10 11 13 14 14 15 16 16 17 18 17 16 15 15 13 10 9 9 9 8 8 12 17 20 19 17 15 14 14 14 16 16 16 14 11 9 8 10 10 9 10 11 8 5 4 2 2 4 3 2 5 3 2 4 4 5 4 3 9 9 3 5 5 7 8 11 9 11 21 27 33 30 24 30 35 36 39 42 43 44 46 48
6 6 7 7 8 10 11 12 14 15 15 16 16 17 17 16 14 15 14 11 8 5 4 5 4 3 7 12 14 14 13 12 12 12 14 14 13 12 11 11 10 9 8 8 9 10 10 8 5 1 2 1 2 4 2 6 8 6 4 4 4 4 5 5 6 6 4 3 5 5 10 16 13 12 22 31 34 30 29 35 37 37 38 38 40 43 47 48
7 7 8 8 9 10 11 13 14 15 16 15 16 17 15 13 14 12 7 6 6 4 4 5 6 4 7 13 16 17 17 18 18 17 17 15 12 9 8 8 8 11 10 6 6 11 10 4 4 2 3 6 6 7 11 12 7 5 4 4 5 6 6 7 9 8 6 7 8 10 17 17 14 12 15 25 28 26 31 37 39 39 37 34 36 40 44 48
8 8 9 9 9 10 11 13 14 16 17 16 16 16 12 12 10 5 7 12 14 12 13 15 16 18 20 24 25 23 22 22 22 20 17 13 9 7 8 9 9 9 6 5 5 7 8 4 3 6 9 11 10 10 12 8 2 0 2 4 7 7 9 9 11 10 2 4 8 11 18 17 16 13 11 23 26 20 26 33 36 38 37 36 36 39 42 45
10 10 10 9 9 10 11 13 14 14 16 16 17 14 10 10 6 5 13 20 20 18 21 24 25 27 28 29 27 23 19 18 20 19 15 11 7 6 8 9 7 4 2 4 4 3 5 6 6 10 11 7 5 6 7 5 4 5 5 7 7 6 11 10 10 12 2 1 6 8 15 15 14 15 15 21 20 18 25 24 27 35 40 41 40 40 41 41
12 12 11 9 10 11 11 12 12 13 13 14 15 13 11 12 9 10 12 13 21 25 24 25 27 31 32 32 32 29 19 14 16 16 11 9 9 7 7 7 4 2 1 3 3 1 2 4 8 14 10 1 1 4 4 5 5 6 5 5 6 4 9 8 6 9 2 1 6 8 15 14 13 19 20 20 17 21 29 24 27 36 38 43 43 38 36 37
12 12 11 9 9 11 12 12 11 11 12 12 12 12 13 14 14 15 11 8 16 24 24 24 25 28 29 28 30 28 20 15 15 15 12 10 9 8 8 7 4 2 2 4 5 4 4 5 11 17 10 4 4 1 3 3 3 5 5 4 7 5 6 6 4 5 4 3 6 10 15 12 11 16 14 16 18 22 31 31 31 37 40 44 43 35 33 36
11 11 11 10 9 10 12 12 10 10 11 10 10 11 13 15 15 16 13 6 8 14 19 18 14 17 20 17 15 16 16 16 13 11 13 13 11 8 7 7 5 3 5 8 10 9 7 5 6 6 6 7 8 4 2 6 5 6 6 5 9 10 9 8 5 6 5 5 4 7 12 8 5 5 4 6 9 14 24 26 28 39 42 38 35 34 34 32
13 13 12 11 11 10 11 12 9 8 9 9 8 10 12 15 15 16 11 4 4 7 10 7 4 5 7 5 5 8 9 11 12 9 9 13 14 7 4 7 6 4 7 8 7 8 8 7 3 3 3 6 6 5 6 7 6 5 5 11 14 12 10 10 8 7 5 4 3 6 8 7 1 1 3 4 3 6 13 16 24 33 27 22 26 33 33 26
14 13 12 11 11 10 10 9 7 7 8 7 8 10 12 13 15 15 9 2 3 4 3 2 1 0 1 1 3 7 5 4 7 10 10 12 14 9 3 5 3 3 6 5 3 3 5 6 3 5 4 6 6 6 7 8 5 6 5 10 12 10 8 9 7 4 1 3 2 3 2 8 4 2 7 7 5 9 12 12 16 17 17 19 24 29 26 21
15 13 11 10 11 10 10 8 6 6 6 6 8 10 12 12 13 12 6 2 3 2 2 1 2 1 1 2 6 7 2 1 1 5 11 12 12 9 4 3 2 2 4 3 1 3 4 2 2 5 5 6 5 6 7 10 5 5 5 6 7 7 7 5 2 3 3 3 4 1 3 7 9 4 5 5 5 11 14 11 10 11 17 25 27 27 21 18
13 12 11 11 11 10 9 8 7 6 6 7 8 9 10 11 11 8 4 1 3 1 3 1 3 2 1 5 8 4 1 1 2 1 8 12 11 7 4 6 6 4 4 5 3 3 3 4 4 6 4 4 6 5 7 12 6 6 4 5 6 5 4 4 4 3 1 3 4 2 4 4 10 4 1 1 4 9 12 10 9 8 11 19 24 22 16 18
13 13 13 12 11 10 8 7 7 6 7 7 7 8 9 10 8 4 3 1 2 2 1 2 3 2 2 5 5 3 1 1 1 3 6 9 11 6 1 5 6 4 4 5 6 5 1 3 6 8 5 5 7 4 8 12 6 4 5 5 4 3 3 4 3 3 2 4 5 5 5 4 10 4 2 1 2 7 8 6 7 9 7 9 13 13 15 21
15 14 14 13 12 10 8 7 8 7 6 7 7 7 9 8 4 3 1 3 1 1 1 2 2 1 2 3 1 2 1 1 2 5 4 4 9 6 0 2 2 3 2 3 5 7 3 2 2 5 6 5 4 2 3 7 4 4 6 4 5 4 4 3 1 3 2 6 6 9 11 6 7 4 3 3 3 5 6 3 4 9 10 7 5 11 18 21
16 16 15 14 12 11 9 8 9 7 6 7 6 6 7 5 3 3 5 2 2 2 1 1 2 2 3 2 1 1 1 1 2 6 2 2 4 2 1 0 1 2 3 4 4 5 2 2 1 5 7 4 6 3 2 2 2 4 4 3 2 2 3 4 4 3 2 7 6 7 9 7 7 6 1 4 6 6 5 2 4 7 12 17 13 15 19 21
17 16 14 14 13 11 10 10 9 7 5 4 3 4 4 2 0 4 3 3 3 2 1 0 2 2 3 2 1 2 0 1 2 4 3 3 3 3 3 4 3 1 4 2 3 5 2 5 4 2 5 7 5 2 3 4 2 3 3 2 1 3 3 3 2 1 3 7 4 3 5 3 10 8 3 8 12 10 7 6 8 9 14 23 18 15 18 18
17 16 15 14 14 12 11 11 11 8 5 3 2 2 4 1 4 3 1 2 2 1 1 1 1 1 2 2 3 2 0 2 4 3 3 3 2 4 5 5 5 2 4 3 2 4 4 5 2 1 3 9 10 5 3 2 3 5 5 5 3 1 2 4 3 2 5 6 3 1 4 3 9 7 6 13 15 11 4 6 11 11 13 17 13 12 15 18
19 18 18 18 17 15 13 12 12 10 7 5 2 3 2 6 5 2 2 5 3 2 1 2 2 1 1 2 4 3 2 3 3 4 2 2 1 3 4 5 5 3 2 2 1 2 4 7 4 5 3 9 12 8 6 4 4 7 5 5 4 4 4 4 3 5 7 4 2 1 3 4 5 3 5 10 10 9 6 6 8 9 11 11 9 10 14 20
22 22 22 22 21 19 16 15 13 10 8 7 4 2 5 7 3 1 4 5 2 3 4 1 1 2 2 3 4 3 5 5 1 3 2 3 3 4 3 4 6 4 3 2 2 3 4 8 7 2 2 10 10 6 6 6 2 4 3 3 3 4 5 4 5 6 5 3 2 2 3 5 4 5 8 7 8 10 9 9 8 9 12 11 11 13 16 21
26 26 26 26 25 21 18 17 14 11 12 9 4 5 9 6 3 3 3 2 2 1 2 4 1 2 5 3 2 2 3 3 1 1 2 3 3 5 4 3 6 8 6 5 3 2 4 7 3 3 1 6 6 3 4 3 2 2 3 3 4 4 5 3 5 3 2 4 4 5 7 6 5 9 8 2 2 5 7 7 6 14 19 17 18 19 19 21
27 27 28 29 28 23 20 19 16 15 16 10 4 7 6 4 7 7 3 2 2 3 1 4 3 3 4 3 2 2 1 1 1 1 2 2 2 4 4 4 5 10 11 7 3 4 4 6 4 2 4 6 3 1 1 1 3 5 3 5 2 2 2 1 2 2 3 7 5 6 11 10 6 7 5 5 3 5 7 6 7 15 20 21 22 22 20 20
24 24 26 27 26 21 20 20 18 20 17 8 7 11 5 3 8 9 6 5 2 1 3 4 4 2 3 4 3 1 2 1 0 1 2 2 3 4 4 3 4 8 8 3 1 3 2 5 6 1 3 3 2 1 3 3 2 4 3 2 1 2 2 1 1 1 5 8 5 6 11 9 7 8 9 8 6 6 7 6 7 12 16 19 21 21 20 20
18 16 16 15 15 16 20 21 23 24 15 5 8 10 5 5 8 10 11 6 2 2 3 5 5 3 3 3 2 1 2 3 1 0 2 2 4 3 3 2 2 2 3 3 2 2 1 2 5 1 1 0 3 0 3 2 1 2 1 3 1 2 4 2 2 1 4 8 7 7 9 6 6 8 10 9 4 6 7 8 9 10 14 17 18 18 19 21
10 7 6 6 7 10 18 24 26 21 10 5 9 8 4 4 7 12 15 10 4 4 4 4 4 4 5 4 4 3 2 3 4 3 3 3 4 4 2 1 1 1 1 3 3 2 1 3 6 2 1 3 2 3 5 5 3 2 1 3 2 2 1 2 2 2 3 7 7 8 8 5 4 3 1 2 7 9 8 8 9 11 16 19 20 20 21 23
7 3 3 7 6 9 21 23 17 12 5 6 9 8 7 6 5 6 10 11 9 6 4 3 4 4 4 4 4 3 1 2 4 4 3 3 5 5 4 6 2 1 3 2 1 2 1 2 4 5 5 6 6 4 4 4 4 4 4 4 6 6 4 5 7 5 5 6 5 7 8 5 2 2 3 7 10 9 9 9 9 13 19 22 24 25 25 27
8 3 3 6 4 12 23 16 8 8 5 7 9 6 6 6 6 6 7 7 6 4 4 3 3 4 4 5 5 3 3 4 4 5 5 4 6 6 4 9 5 1 2 0 3 2 2 2 2 5 6 7 9 4 5 4 4 4 3 2 3 4 4 6 7 4 3 3 3 4 6 3 2 4 5 8 11 9 12 13 10 12 18 21 22 25 26 28
8 5 7 10 9 17 20 7 5 7 4 7 9 8 8 5 4 5 5 4 4 3 4 3 3 5 5 5 6 5 5 5 6 8 7 4 4 1 7 10 6 4 4 2 2 2 1 2 2 4 4 5 9 6 1 3 2 2 2 1 1 3 3 5 5 3 2 4 5 5 5 3 2 4 5 11 14 14 16 17 14 13 18 21 23 25 26 27
6 7 9 12 17 23 15 3 5 7 6 8 7 9 12 8 6 7 4 3 5 3 2 2 4 7 5 3 3 5 5 5 5 6 4 3 3 3 11 12 9 4 2 0 2 2 1 1 1 2 3 3 5 5 2 3 2 1 2 2 1 3 5 6 4 3 3 6 8 8 5 2 3 4 7 11 12 12 14 17 18 17 18 21 23 25 26 27
2 5 8 12 17 19 10 2 2 4 6 9 8 9 10 8 10 13 8 5 7 6 3 3 3 3 2 1 1 2 3 3 2 1 1 1 3 1 8 11 8 3 1 3 1 1 1 2 2 2 4 3 4 5 2 2 2 1 2 3 3 3 5 5 5 4 5 5 6 7 6 4 4 5 7 8 8 8 9 11 14 16 17 19 22 24 25 26
0 1 4 7 11 13 9 5 2 2 3 5 6 7 10 10 9 10 9 8 10 9 8 7 3 2 1 2 3 4 5 5 4 2 1 2 2 0 4 6 7 4 3 4 5 0 1 2 4 6 7 6 7 7 2 2 3 4 5 8 8 7 5 4 5 6 6 7 6 8 10 9 9 7 4 5 6 6 5 6 8 10 13 15 17 20 22 24
1 1 1 1 5 7 7 5 2 2 2 2 2 3 8 11 7 5 7 6 4 4 6 6 4 3 4 4 4 5 5 4 4 3 3 3 3 3 3 3 6 4 3 2 7 2 1 3 5 8 10 8 8 9 4 2 4 5 7 10 11 11 9 9 10 9 7 8 8 9 10 12 13 10 3 4 5 4 4 6 5 6 9 11 13 16 19 21
1 1 2 2 2 2 3 2 1 1 3 2 1 3 4 4 3 2 4 2 2 1 2 2 1 1 1 1 1 2 3 3 2 2 1 2 2 4 5 2 4 7 5 3 6 3 2 4 5 7 9 8 7 8 5 4 6 6 7 11 13 14 15 14 14 12 9 10 11 12 15 18 14 6 1 2 3 3 4 7 7 6 8 10 12 15 18 20
2 2 1 1 1 1 1 2 4 3 3 2 1 3 2 2 3 3 1 1 2 1 1 2 1 2 2 1 1 1 2 2 2 2 1 1 1 1 3 2 1 6 8 4 3 1 2 3 4 4 6 8 8 9 9 9 9 10 11 12 14 16 18 16 16 15 14 16 16 16 19 18 8 1 2 0 2 4 6 8 9 8 9 9 11 14 16 19
2 1 1 2 2 2 3 3 3 3 3 3 3 4 2 3 5 3 0 2 3 2 2 3 0 2 2 3 2 1 1 1 1 1 2 0 1 0 0 2 1 4 6 2 2 3 2 3 4 3 5 8 10 12 13 12 11 13 14 14 15 17 17 17 17 17 16 16 15 15 16 11 1 2 2 2 3 5 6 8 9 9 9 10 11 12 14 16
5 3 0 2 2 3 2 1 1 2 3 3 4 4 2 3 4 1 1 2 2 0 0 1 2 2 2 3 2 1 1 3 3 2 2 2 5 3 2 2 1 4 4 1 1 3 2 3 4 5 6 9 10 11 12 9 9 13 15 17 19 17 15 15 14 13 13 12 12 12 10 4 2 3 2 3 4 4 5 8 11 12 11 12 13 13 15 17
8 6 5 1 1 3 2 1 1 3 3 3 3 3 1 1 2 2 0 3 8 8 7 7 5 3 1 1 2 1 2 2 2 6 7 8 11 11 10 11 9 5 3 1 1 3 2 2 3 4 6 9 9 7 5 5 6 11 12 13 15 15 14 13 12 12 9 5 7 8 4 1 2 3 2 3 3 4 6 8 12 14 15 13 13 14 16 18
Wind_Direction
333 337 338 340 340 340 340 340 341 340 343 342 343 346 344 346 344 342 340 340 338 337 337 335 335 335 334 334 334 334 332 331 327 324 323 329 1 354 345 300 261 232 229 233 234 228 224 218 215 210 207 206 207 199 178 179 170 160 122 115 210 205 205 187 187 202 183 253 258 240 257 247 279 300 300 290 259 261 275 273 270 263 264 267 270 277 280 282
315 319 320 323 323 324 324 323 324 324 324 324 325 323 323 324 321 322 322 322 323 323 325 325 326 327 328 329 329 329 328 327 322 318 313 40 10 358 357 344 289 246 241 238 234 231 233 231 225 218 209 206 212 199 188 189 179 167 112 153 225 209 206 194 198 207 204 250 260 263 276 270 276 289 289 276 255 263 274 275 273 266 270 272 270 275 280 281
301 303 305 308 309 310 311 311 312 310 310 310 310 310 310 310 310 310 310 311 313 314 315 317 319 320 322 323 324 326 327 326 320 307 194 57 9 355 342 353 349 271 243 236 230 228 229 226 228 224 214 213 212 196 191 192 193 200 156 197 242 224 230 222 222 233 238 256 270 276 282 275 275 280 268 247 266 268 254 266 272 266 274 285 283 279 280 279
295 296 297 298 299 301 301 302 302 301 302 301 300 301 299 300 300 300 301 303 304 305 308 310 311 314 316 317 320 322 326 327 316 239 177 345 350 340 318 325 346 330 246 236 233 231 229 225 226 220 217 222 214 205 207 201 199 192 171 207 238 205 249 241 237 251 254 258 264 273 288 284 282 276 246 230 284 268 251 264 270 271 280 291 295 289 281 279
293 294 295 295 296 297 298 298 298 298 298 298 297 296 296 296 294 295 296 297 299 300 302 304 306 308 310 312 315 317 328 339 316 175 221 308 326 321 295 294 323 337 293 254 240 237 236 233 225 213 214 224 192 191 228 210 198 194 211 230 240 206 252 262 251 259 260 258 261 268 278 281 284 273 249 219 220 257 266 276 280 281 286 291 293 290 283 280
292 294 294 295 296 296 296 296 297 298 298 298 298 297 297 296 295 295 294 295 297 297 299 300 302 304 305 308 308 310 316 305 280 277 287 299 306 299 275 286 308 318 313 278 254 244 238 228 214 205 201 225 194 196 231 209 198 231 244 234 244 237 244 268 263 257 264 257 254 256 272 280 280 279 267 219 225 265 278 284 285 285 286 286 287 285 282 281
290 291 292 293 294 294 294 295 296 296 297 297 297 297 297 296 296 296 295 296 295 296 297 297 299 300 302 303 302 302 280 269 294 295 292 295 291 278 272 289 299 303 304 284 268 249 239 221 209 203 180 261 217 211 231 213 201 225 266 240 248 246 246 262 265 262 265 258 260 265 277 280 269 278 284 241 243 271 284 287 285 284 284 282 282 282 282 282
286 287 289 290 291 292 293 294 295 296 297 296 296 296 295 295 295 294 295 295 294 294 293 294 295 295 298 298 298 295 272 282 303 299 293 292 271 272 282 291 292 294 295 284 272 253 243 224 215 210 197 235 218 210 215 221 213 212 243 252 255 254 256 268 271 269 267 267 270 268 267 271 270 277 280 267 264 273 284 288 285 283 283 280 280 281 282 282
285 286 287 289 290 291 291 293 294 295 296 296 296 295 294 294 293 293 292 292 293 292 291 291 290 291 292 291 292 288 279 292 303 292 295 290 278 283 284 288 288 288 288 278 265 247 241 231 229 225 230 236 216 222 198 205 234 214 230 253 271 271 274 278 275 273 273 273 270 255 257 268 275 285 273 271 272 276 283 285 284 283 283 281 280 283 283 282
285 286 287 289 289 290 290 291 292 293 294 295 295 294 293 293 292 292 291 291 291 290 289 288 287 288 286 285 285 277 283 295 294 287 293 288 287 285 281 283 282 283 281 273 261 249 248 249 249 233 240 245 223 229 193 195 234 236 248 273 277 279 285 282 275 276 272 271 261 229 248 265 273 290 267 273 275 275 279 282 284 283 283 285 285 286 284 281
283 285 287 288 289 290 290 291 292 294 295 295 295 294 294 293 293 293 293 292 290 289 287 285 286 283 282 282 269 261 282 290 287 287 286 285 286 281 279 277 275 276 273 271 263 257 256 252 245 218 225 229 223 231 219 229 244 285 323 305 285 292 295 282 271 274 263 266 258 224 241 271 275 232 252 272 276 272 276 283 287 285 285 288 288 288 285 282
282 285 286 288 289 290 292 295 296 298 299 299 298 297 296 296 296 296 295 294 291 289 286 284 282 279 280 277 265 268 284 285 281 282 279 280 279 276 277 273 269 270 267 267 260 253 248 243 236 221 220 208 214 256 244 245 252 300 331 309 294 320 306 282 265 268 243 244 256 199 233 279 253 231 256 273 278 276 277 280 287 289 289 289 289 289 287 288
282 284 286 288 290 292 295 297 299 303 304 305 304 303 302 302 302 301 298 296 294 290 286 282 276 274 272 270 273 279 284 281 279 278 276 276 274 274 274 271 269 267 263 259 253 246 235 236 232 226 232 222 225 252 266 322 319 289 312 142 300 336 308 281 249 258 225 222 199 153 239 261 227 244 262 277 283 280 276 277 285 289 289 289 287 287 286 287
279 280 284 287 289 293 296 300 304 307 311 312 312 311 309 309 309 306 304 302 297 292 287 279 271 267 256 264 279 284 282 280 279 278 277 274 272 272 270 270 269 266 263 255 249 243 232 227 219 222 233 231 241 260 288 348 345 283 306 133 299 290 281 294 312 127 285 245 175 160 263 249 244 259 267 279 284 283 272 273 283 285 287 287 286 285 283 285
273 277 282 286 291 297 301 308 311 315 320 320 320 318 316 315 314 312 309 305 300 294 285 275 268 259 252 268 279 282 281 281 281 282 280 274 270 269 270 269 266 262 257 246 238 234 227 208 198 206 226 236 243 263 331 349 348 6 293 273 270 210 262 305 300 219 242 259 163 168 264 252 252 264 271 280 285 289 276 274 280 280 283 285 284 284 283 285
269 276 282 290 298 304 311 317 320 323 326 326 325 323 320 320 318 313 310 305 303 297 283 273 265 248 245 274 275 275 278 280 283 283 280 278 272 266 264 264 260 253 241 230 225 220 207 184 189 202 220 241 230 157 34 352 321 345 228 249 250 244 279 319 299 256 227 224 172 204 249 268 257 262 276 286 288 291 286 281 280 277 280 282 283 283 282 284
266 276 284 296 304 310 319 322 326 327 328 330 327 326 326 322 319 314 310 307 307 303 283 267 256 243 246 262 268 273 278 282 284 281 281 283 274 264 258 254 248 239 219 207 204 193 182 176 176 203 228 247 119 106 33 318 274 280 224 239 239 244 271 300 297 295 233 167 211 236 244 258 261 271 281 282 285 289 286 281 279 277 277 278 282 282 282 281
269 280 290 302 312 319 324 328 331 330 332 335 331 332 332 326 323 317 313 315 317 326 303 250 201 218 256 253 258 274 289 291 284 283 286 282 272 262 250 242 233 210 185 178 185 177 173 172 154 152 285 273 125 124 197 237 240 253 247 258 279 255 249 254 267 297 319 229 235 277 264 259 264 270 274 276 281 284 282 281 281 278 276 276 278 279 281 281
283 290 299 307 318 322 327 330 332 332 333 335 336 338 337 333 329 319 317 338 326 317 295 233 198 216 266 266 268 279 289 288 285 284 280 276 270 251 223 216 203 179 163 156 183 179 166 134 102 126 230 228 208 178 209 232 234 243 238 241 273 276 253 245 255 266 290 280 265 271 271 272 275 268 269 276 278 276 278 281 281 280 279 277 275 275 278 281
290 294 298 305 316 322 327 329 329 332 332 333 339 345 349 348 343 321 310 314 304 288 277 266 254 254 263 271 274 277 279 278 279 278 274 271 261 228 194 176 170 171 167 153 184 184 167 162 161 194 220 226 222 206 222 251 331 284 257 263 262 271 270 261 269 271 257 281 262 252 268 278 280 279 271 274 276 270 267 271 275 279 283 281 277 275 276 279
290 290 292 299 310 320 328 329 327 330 333 335 342 354 10 4 353 310 313 310 304 294 283 279 271 262 263 267 266 265 269 272 270 267 266 258 226 196 185 164 149 180 213 140 139 138 167 198 213 219 225 223 214 205 223 257 291 264 256 276 268 255 270 267 270 277 280 293 260 246 269 276 278 281 268 263 264 255 255 261 273 279 282 282 279 276 277 281
286 284 288 293 304 317 326 331 330 331 335 335 339 356 8 357 339 321 317 301 301 302 289 279 269 261 260 258 255 255 257 264 264 258 256 234 201 194 186 157 141 189 185 122 115 79 206 229 239 237 234 172 87 115 142 216 233 249 245 275 278 258 278 274 260 285 343 247 271 285 283 278 270 267 261 255 248 253 261 260 264 270 274 276 276 278 282 287
286 285 292 295 303 316 322 329 331 332 337 336 342 355 355 348 343 335 326 278 292 302 288 272 263 260 262 258 255 253 246 246 257 258 251 226 199 201 185 153 146 152 145 183 195 208 233 239 237 237 228 212 257 136 104 275 237 224 235 267 276 267 280 273 261 318 350 257 274 298 291 283 269 263 262 257 246 250 261 259 258 260 262 266 271 278 285 288
289 292 299 302 305 313 319 325 331 334 335 341 349 352 349 346 344 339 329 279 277 293 279 271 267 264 268 267 259 247 235 233 244 254 245 224 199 194 188 166 147 153 196 204 207 220 236 240 228 222 194 197 239 253 235 269 258 228 223 233 257 261 257 254 278 334 335 292 304 319 301 292 268 277 306 280 248 241 255 260 256 253 254 262 273 278 280 288
287 290 296 300 303 310 316 320 332 335 329 340 347 347 352 348 343 343 338 311 287 280 263 268 292 267 262 273 240 213 212 222 226 228 222 210 197 180 169 173 165 199 213 202 213 239 250 251 215 128 132 172 201 243 228 223 249 268 224 220 241 257 260 263 293 342 354 315 342 9 324 297 239 24 302 301 309 256 250 250 248 251 259 272 278 276 280 298
285 286 290 295 299 307 310 313 326 327 323 336 344 346 351 346 344 346 350 21 307 273 230 232 265 201 174 98 169 171 175 221 226 219 209 203 198 185 155 168 171 217 201 177 199 242 246 251 213 145 137 136 164 240 226 192 230 286 238 216 231 246 259 268 291 331 324 267 300 58 349 282 276 218 253 262 273 267 255 246 256 276 299 292 280 281 292 315
281 282 287 290 295 301 301 303 314 327 328 331 340 344 346 346 347 347 359 20 295 249 131 161 163 76 319 172 154 152 172 257 180 209 205 200 197 192 201 200 167 218 175 140 281 242 203 224 77 108 123 132 171 240 216 167 177 261 235 189 199 223 237 236 226 234 243 287 310 98 139 277 284 247 245 245 222 258 263 262 280 305 309 301 294 294 306 334
274 277 284 286 290 292 293 298 306 323 322 320 333 337 341 345 341 351 35 348 294 120 113 171 132 69 43 160 168 161 44 176 102 159 192 193 195 185 219 220 187 199 173 152 240 253 161 180 174 140 123 164 200 223 181 157 176 249 212 144 162 190 198 166 156 199 272 343 307 250 138 268 283 265 281 296 205 249 265 267 280 275 280 296 296 297 323 358
267 273 280 281 284 281 279 284 289 303 308 313 325 326 337 339 334 19 79 257 307 65 112 179 133 74 87 138 183 229 4 34 90 148 169 187 198 185 240 228 182 187 206 182 227 255 176 189 186 155 151 209 213 209 169 164 193 223 140 95 80 86 81 102 130 129 56 319 261 202 167 245 282 272 113 24 245 250 260 259 275 278 279 287 291 312 354 15
266 270 274 277 278 273 268 269 276 288 298 302 308 317 328 327 351 66 193 245 336 18 137 168 206 303 85 112 281 283 243 304 98 139 138 160 195 200 268 241 148 133 246 273 255 252 233 111 144 177 203 203 150 107 173 168 164 126 112 61 37 45 46 59 51 87 78 286 249 193 185 202 283 289 151 193 229 230 252 296 307 309 324 320 326 0 13 30
268 270 271 273 272 270 268 264 267 275 282 284 296 317 321 327 60 141 227 261 347 300 88 107 292 37 86 111 294 296 170 267 149 144 146 110 168 207 51 193 117 73 350 321 285 275 243 146 205 224 216 176 110 82 6 60 108 108 97 57 14 334 17 32 352 50 138 264 259 197 183 179 241 267 229 256 266 237 234 331 333 312 309 303 321 11 30 47
271 271 270 268 264 263 261 258 262 269 270 267 286 323 351 359 285 205 239 346 336 276 105 244 309 62 84 44 281 242 166 238 192 149 165 146 149 196 196 191 182 332 318 268 276 316 274 215 236 253 209 182 144 101 352 10 71 115 108 109 345 312 347 351 310 74 209 253 268 178 159 195 246 255 273 271 274 261 225 232 261 269 282 292 317 16 47 54
270 270 269 266 262 259 253 252 256 253 244 238 264 19 70 206 247 193 197 291 250 262 70 123 358 85 117 352 289 236 196 217 198 176 173 145 162 238 245 218 175 206 263 214 304 313 287 272 222 123 245 191 162 161 225 253 170 158 151 157 164 189 245 262 248 255 265 269 304 169 158 253 275 269 241 242 259 275 262 240 257 269 282 296 330 29 52 48
268 269 268 264 262 259 253 250 248 241 237 223 172 79 129 233 244 115 185 241 240 317 336 111 58 354 176 246 249 208 233 260 182 161 180 122 138 257 261 243 195 171 202 206 290 213 252 288 213 172 218 177 176 198 188 136 156 184 169 150 164 176 204 235 225 249 269 274 319 310 174 219 261 279 238 234 263 295 302 286 288 308 319 328 1 38 47 41
268 268 266 264 261 256 252 248 240 231 225 203 153 137 223 236 245 149 223 240 273 304 304 15 81 310 280 244 257 226 217 252 128 115 187 170 188 218 208 218 203 167 146 212 262 172 213 269 246 208 138 157 177 213 157 111 134 209 135 121 206 198 191 244 246 232 253 279 272 239 225 223 234 285 280 259 272 289 298 304 323 13 31 31 31 37 40 38
268 266 265 263 260 254 248 241 231 223 214 192 165 222 229 229 199 195 205 193 198 201 321 318 246 250 278 253 279 288 184 215 237 118 227 208 215 223 211 220 198 177 174 193 232 228 232 263 278 39 76 181 190 202 155 151 206 169 122 187 227 175 156 241 273 242 225 261 244 222 253 275 283 290 297 318 278 296 331 343 28 57 54 39 27 28 31 36
269 267 264 261 259 255 246 233 220 215 206 186 204 231 227 219 201 203 198 138 161 144 131 285 238 198 257 257 274 302 147 213 234 163 232 256 252 213 207 255 209 190 206 213 231 251 254 275 267 156 218 238 219 200 317 5 133 132 174 223 221 109 130 186 272 289 247 253 242 218 246 270 279 280 314 27 12 338 355 14 53 53 44 34 32 34 37 42
270 270 268 265 263 254 237 222 206 202 197 185 233 236 227 223 203 197 202 198 228 208 176 241 243 205 235 244 249 223 164 201 252 133 206 252 251 190 171 254 224 203 225 230 342 281 289 287 275 213 211 248 62 45 302 332 119 145 211 252 119 175 243 189 181 241 247 255 256 217 232 245 244 254 277 295 308 337 354 18 44 39 38 42 45 43 42 43
272 274 273 266 256 239 221 208 194 192 192 191 233 233 227 238 230 221 224 224 225 211 208 230 238 253 248 224 245 265 178 181 191 221 213 226 246 209 160 236 234 221 223 152 171 274 21 263 266 36 95 310 42 130 215 235 306 60 352 314 8 190 216 209 195 184 243 260 267 243 234 226 218 241 268 285 331 21 2 12 41 43 41 46 50 47 41 38
264 264 265 229 218 212 195 188 187 189 196 213 221 230 234 240 245 235 234 237 221 205 229 228 213 237 257 257 268 272 228 195 206 220 219 226 266 283 322 316 252 354 78 137 198 265 38 262 259 276 267 257 257 211 201 207 200 134 195 252 258 229 234 270 236 182 235 258 263 260 252 230 221 236 230 57 54 48 27 27 43 41 34 33 37 39 37 35
217 230 251 207 211 189 172 171 185 196 210 226 224 237 245 247 259 243 235 235 228 225 232 212 203 229 257 275 262 232 214 226 213 216 230 241 251 267 353 14 353 346 56 78 221 230 202 246 254 257 253 252 251 211 180 192 173 159 190 214 225 227 232 259 249 216 218 242 251 262 263 247 259 328 59 78 64 46 36 44 46 32 26 25 26 30 32 33
186 203 190 179 201 176 163 162 200 209 208 226 228 237 242 248 258 254 250 235 219 230 239 224 227 239 254 266 254 233 242 236 210 219 237 232 222 226 351 14 21 29 25 278 227 212 161 157 221 247 242 255 270 247 156 157 146 154 193 230 248 238 215 240 255 242 227 263 298 282 268 262 2 337 354 59 72 62 46 51 54 36 29 27 26 27 30 31
193 207 163 152 169 176 167 167 220 203 219 240 240 246 244 251 257 247 250 224 199 215 227 223 233 232 236 245 241 235 234 221 218 232 238 236 224 245 9 18 41 32 353 309 273 329 61 138 214 254 261 278 282 280 108 89 99 161 246 313 288 265 267 264 274 293 273 277 292 280 264 263 308 323 16 56 65 58 44 43 43 34 29 29 29 29 29 27
212 226 194 168 171 178 179 198 209 200 229 236 242 250 245 249 254 249 246 194 196 200 205 231 237 233 239 253 249 246 239 234 246 242 230 246 250 50 35 36 54 47 351 180 258 310 346 260 247 275 285 286 280 286 352 28 31 131 246 267 208 245 280 288 277 274 259 238 241 254 258 240 276 331 35 52 56 52 40 34 34 30 26 27 29 30 28 23
228 240 221 201 191 193 204 252 216 210 222 228 242 248 246 254 252 251 255 228 212 206 211 250 232 219 257 332 335 278 244 227 256 264 111 283 260 66 42 43 68 100 102 67 51 216 209 261 259 283 283 269 275 281 296 323 308 274 271 296 316 285 280 294 287 266 262 248 241 261 278 281 291 332 21 32 37 48 42 33 36 34 28 28 29 27 25 21
69 249 225 220 218 220 235 260 268 237 217 225 237 239 242 250 254 248 243 244 240 227 225 233 203 154 235 233 232 259 252 218 204 215 259 274 259 350 43 59 81 120 147 58 23 267 192 252 229 243 259 257 271 279 301 353 284 287 312 309 306 299 285 287 278 262 277 292 280 271 279 288 294 304 351 22 12 18 23 20 31 32 29 30 28 23 18 15
118 256 145 198 249 240 237 250 250 229 268 272 230 245 243 238 247 246 220 226 251 230 225 229 198 185 223 222 220 241 248 224 198 206 249 262 262 309 353 74 72 68 136 44 12 38 193 275 242 247 261 261 273 282 298 334 284 284 305 295 291 294 286 273 266 267 289 295 276 275 286 288 290 296 329 30 1 352 357 352 354 9 16 19 16 12 9 7
151 240 131 107 284 246 212 245 319 300 293 301 242 281 271 227 215 217 208 236 307 226 222 244 145 120 236 215 191 230 249 244 237 217 239 311 329 337 349 45 69 50 65 30 12 62 165 274 258 257 272 270 278 286 284 288 283 276 275 273 278 280 272 266 264 266 270 267 269 284 285 280 285 298 45 46 352 312 314 333 333 328 344 358 359 356 357 359
208 264 281 0 303 303 274 317 8 358 288 266 227 255 260 231 238 220 140 356 301 247 230 249 166 87 63 62 125 234 287 276 295 342 70 4 316 298 330 318 85 47 46 41 349 324 186 261 260 260 284 286 285 288 288 289 286 279 271 266 266 265 265 267 269 267 261 258 266 273 272 275 284 104 137 15 329 300 301 325 332 316 315 334 340 341 345 348
224 248 315 8 326 294 292 299 347 344 284 256 249 255 238 235 261 264 171 282 269 264 281 278 261 106 94 66 90 208 324 99 225 300 81 98 286 164 282 261 202 11 7 14 304 292 251 268 297 319 310 291 282 281 281 280 276 276 273 265 259 258 261 265 267 268 265 265 267 265 266 271 239 148 237 265 293 307 306 315 323 314 302 306 313 319 329 333
229 221 250 22 328 253 243 258 245 240 258 233 225 253 262 241 259 302 21 2 33 102 269 74 65 68 85 56 43 253 23 96 180 267 358 281 273 284 288 280 323 342 327 289 270 302 289 290 312 318 289 276 277 280 283 287 282 273 267 262 258 255 255 255 257 262 265 268 273 272 272 273 152 172 248 254 257 285 294 299 311 314 304 296 296 304 316 323
234 243 245 230 284 253 185 122 184 204 225 223 211 237 232 208 9 33 0 53 74 82 74 75 67 38 48 330 323 204 151 66 317 304 309 287 276 275 266 265 268 265 253 248 283 260 241 261 279 281 277 277 281 289 318 353 305 275 262 254 253 254 256 257 258 262 264 263 269 273 268 186 181 202 244 270 256 255 276 287 298 303 301 292 288 296 310 319